fechar
X Fechar
X Fechar

X Fechar
foto
Salvar nos Favoritos

X Fechar
foto
Clique e saiba mais
Clique e saiba mais
Clique e saiba mais
Clique e saiba mais
Clique e saiba mais
Clique e saiba mais
Clique e saiba mais

América Sports

Capacete Companhia

RM - Motocross Racing

Edgers Racing

RX Graphics

JPS Racing

Ohlins

DLua Racing

Toro Sports

Clique e saiba mais

> Notícias > Últimas Notícias

Mundial de Motocross 2017 Portugal: resultados da 12ª etapa em Águeda
Publicado em: 02/07/2017

Cairoli vence mais uma batalha contra Herlings e conquista segundo GP consecutivo
Redação MotoX.com.br: Lucidio Arruda - Fotos: Ray Archer


Antonio Cairoli

Antonio Cairoli venceu seu 82º GP no Mundial de Motocross após mais uma difícil batalha contra Jeffrey Herlings. O holandês foi o mais rápido na primeira bateria superando o italiano na fase final. Cairoli saiu na frente na segunda bateria novamente e conseguiu abrir vantagem durante as primeiras voltas. Após assumir o segundo lugar, Herlings conseguiu diminuir a diferença de 9 para 5 segundos, quando Cairoli respondeu e controlou a vantagem nas últimas voltas.

Arminas Jasikonis (3-3) conquistou não apenas seu primeiro pódio, mas o primeiro de um piloto da Lituânia. Um grande feito do piloto que participa de sua primeira temporada completa no Mundial.


Jeffrey Herlings

Na classe MX2 Jeremy Seewer (2-1) e Pauls Jonass (1-2) trocaram posições nas baterias. O suíço faturou o GP mas não conseguiu alterar a diferença de pontos na classificação geral.


Arminas Jasikonis

Vídeo Highlights











Resultados

P. Nac MXGP Bateria 1 M Tempo Diff Gap Melhor Volta Last Lap
1 NL J. Herlings (84) KTM 35:13.457 +10:39.999 +10:39.999 01:50.575 18: 01:52.932
2 IT A. Cairoli (222) KTM 35:14.737 +00:01.280 +00:01.280 01:51.153 18: 01:51.153
3 LT A. Jasikonis (177) SUZ 35:43.153 +00:29.696 +00:28.416 01:52.169 18: 01:55.184
4 DE M. Nagl (12) HUS 35:48.842 +00:35.385 +00:05.689 01:52.447 18: 01:58.802
5 FR R. Febvre (461) YAM 35:57.283 +00:43.826 +00:08.441 01:52.667 18: 01:59.757
6 BE C. Desalle (25) KAW 36:00.196 +00:46.739 +00:02.913 01:52.402 18: 01:57.285
7 NL G. Coldenhoff (259) KTM 36:01.718 +00:48.261 +00:01.522 01:53.335 18: 01:55.937
8 SI T. Gajser (243) HON 36:03.202 +00:49.745 +00:01.484 01:53.124 18: 01:54.840
9 CH A. Tonus (66) YAM 36:04.439 +00:50.982 +00:01.237 01:52.235 18: 01:54.185
10 GB M. Anstie (99) HUS 36:15.155 +01:01.698 +00:10.716 01:53.755 18: 01:56.460
11 RU E. Bobryshev (777) HON 36:22.495 +01:09.038 +00:07.340 01:53.032 18: 02:02.038
12 FR G. Paulin (21) HUS 36:25.593 +01:12.136 +00:03.098 01:54.247 18: 02:00.030
13 EE T. Leok (7) HUS 36:32.962 +01:19.505 +00:07.369 01:54.081 18: 02:02.193
14 IT A. Lupino (77) HON 36:37.688 +01:24.231 +00:04.726 01:53.776 18: 02:02.354
15 BE J. V. Horebeek (89) YAM 36:49.486 +01:36.029 +00:11.798 01:53.696 18: 02:03.212
16 ES J. Butron (17) KTM 36:56.102 +01:42.645 +00:06.616 01:55.741 18: 02:00.621
17 FR M. Desprey (141) KAW 36:59.713 +01:46.256 +00:03.611 01:53.874 18: 02:00.237
18 PT R. Goncalves (999) HUS 37:02.098 +01:48.641 +00:02.385 01:56.482 18: 01:57.580
19 BE J. Dewulf (212) KTM 35:36.276 -1 lap -1 lap 01:56.547 17: 01:59.520
20 AT L. Neurauter (909) KTM 35:38.194 -1 lap -1 lap 01:56.970 17: 01:56.970
21 BE D. Graulus (71) HON 35:55.950 -1 lap -1 lap 01:57.341 17: 02:03.566
23 SE J. Bengtsson (293) KTM 35:16.722 -2 laps -2 laps 01:58.841 16: 02:07.828
25 FR J. Tixier (911) KAW 24:34.444 -6 laps -6 laps 01:52.200 12: 01:54.110
26 BE K. d. Dycker (9) HON 26:08.840 -6 laps -6 laps 01:56.899 12: 02:13.691
27 BE K. Strijbos (22) SUZ 07:37.201 -15 laps -15 laps 01:54.891 3: 01:54.891

P. Nac MXGP Bateria 2 M Tempo Diff Gap Melhor Volta Last Lap
1 IT A. Cairoli (222) KTM 35:28.572 +10:39.999 +10:39.999 01:51.078 18: 01:59.060
2 NL J. Herlings (84) KTM 35:30.340 +00:01.768 +00:01.768 01:50.728 18: 01:55.404
3 LT A. Jasikonis (177) SUZ 36:07.316 +00:38.744 +00:36.976 01:53.446 18: 01:57.688
4 FR R. Febvre (461) YAM 36:13.465 +00:44.893 +00:06.149 01:53.872 18: 01:57.460
5 DE M. Nagl (12) HUS 36:14.792 +00:46.220 +00:01.327 01:53.092 18: 01:57.189
6 SI T. Gajser (243) HON 36:17.266 +00:48.694 +00:02.474 01:53.037 18: 01:58.814
7 CH A. Tonus (66) YAM 36:23.071 +00:54.499 +00:05.805 01:53.761 18: 01:56.884
8 GB M. Anstie (99) HUS 36:24.691 +00:56.119 +00:01.620 01:54.508 18: 01:55.418
9 RU E. Bobryshev (777) HON 36:28.694 +01:00.122 +00:04.003 01:54.300 18: 01:57.737
10 BE C. Desalle (25) KAW 36:30.174 +01:01.602 +00:01.480 01:54.261 18: 01:57.386
11 FR G. Paulin (21) HUS 36:35.521 +01:06.949 +00:05.347 01:55.210 18: 01:59.357
12 EE T. Leok (7) HUS 36:42.474 +01:13.902 +00:06.953 01:54.703 18: 02:03.600
13 IT A. Lupino (77) HON 36:47.525 +01:18.953 +00:05.051 01:54.659 18: 02:03.684
14 NL G. Coldenhoff (259) KTM 37:05.494 +01:36.922 +00:17.969 01:55.064 18: 02:02.856
15 FR M. Desprey (141) KAW 37:12.046 +01:43.474 +00:06.552 01:55.243 18: 02:04.034
16 PT R. Goncalves (999) HUS 37:21.380 +01:52.808 +00:09.334 01:56.312 18: 02:04.020
17 ES J. Butron (17) KTM 35:38.073 -1 lap -1 lap 01:56.597 17: 02:10.795
18 BE K. d. Dycker (9) HON 35:49.729 -1 lap -1 lap 01:56.609 17: 02:07.276
19 AT L. Neurauter (909) KTM 35:54.367 -1 lap -1 lap 01:58.236 17: 02:04.809
22 BE J. V. Horebeek (89) YAM 15:27.775 -11 laps -11 laps 01:55.341 7: 01:58.264
23 BE D. Graulus (71) HON 08:01.541 -15 laps -15 laps 02:02.465 3: 02:04.225
24 BE J. Dewulf (212) KTM 10:39.999 -19 laps -19 laps 10:39.999  

Pódio
1. Antonio Cairoli, 47 pts
2. Jeffrey Herlings, 47
3. Arminas Jasikonis, 40

MX2

P. Nac MX2 Bateria 1 M Tempo Diff Gap Melhor Volta Last Lap
1 LV P. Jonass (41) KTM 34:12.844 +10:39.999 +10:39.999 01:53.702 17: 01:56.650
2 CH J. Seewer (91) SUZ 34:14.611 +00:01.767 +00:01.767 01:53.615 17: 01:54.216
3 US T. Covington (64) HUS 34:15.544 +00:02.700 +00:00.933 01:54.267 17: 01:55.692
4 DK T. K. Olsen (116) HUS 34:47.264 +00:34.420 +00:31.720 01:55.124 17: 01:59.380
5 BE J. Lieber (33) KTM 34:51.189 +00:38.345 +00:03.925 01:55.799 17: 01:57.810
6 FR B. Paturel (6) YAM 34:52.988 +00:40.144 +00:01.799 01:54.884 17: 01:55.647
7 NL B. Bogers (189) KTM 34:56.977 +00:44.133 +00:03.989 01:55.609 17: 02:00.271
8 GB B. Watson (919) KTM 35:03.944 +00:51.100 +00:06.967 01:54.891 17: 02:00.024
9 BE B. V. doninck (172) YAM 35:06.605 +00:53.761 +00:02.661 01:55.349 17: 01:59.584
11 ES I. L. Olano (66) HUS 35:14.001 +01:01.157 +00:02.223 01:57.022 17: 01:58.059
12 FR D. Herbreteau (338) KAW 35:14.499 +01:01.655 +00:00.498 01:55.533 17: 01:55.533
13 DE H. Jacobi (29) HUS 35:23.487 +01:10.643 +00:08.988 01:56.639 17: 02:02.077
14 SE A. Östlund (161) YAM 35:25.829 +01:12.985 +00:02.342 01:56.605 17: 02:00.973
15 IT M. Cervellin (747) HON 35:31.208 +01:18.364 +00:05.379 01:57.200 17: 02:02.171
16 NL B. Vaessen (98) SUZ 35:35.443 +01:22.599 +00:04.235 01:56.303 17: 02:02.063
17 GB C. Mewse (426) HUS 35:38.965 +01:26.121 +00:03.522 01:57.070 17: 02:00.331
19 NL L. v. Berkel (107) KTM 35:45.667 +01:32.823 +00:00.479 01:58.315 17: 01:59.676
20 NL M. D. Waal (53) HON 34:13.865 -1 lap -1 lap 01:59.224 16: 02:08.145
21 BE N. Renkens (83) KTM 34:24.531 -1 lap -1 lap 01:59.095 16: 02:07.147
23 ES J. Zaragoza (101) YAM 35:09.865 -1 lap -1 lap 02:00.910 16: 02:19.207
24 ES J. P. Garcia (61) KTM 25:32.516 -5 laps -5 laps 01:56.409 12: 02:05.386
26 NL F. v. d. Vlist (88) KTM 18:04.322 -9 laps -9 laps 01:59.278 8: 02:08.722
28 IT G. Tropepe (223) HUS 07:55.792 -14 laps -14 laps 01:59.667 3: 02:01.363

P. Nac MX2 Bateria 2 M Tempo Diff Gap Melhor Volta Last Lap
1 CH J. Seewer (91) SUZ 34:25.343 +10:39.999 +10:39.999 01:53.911 17: 01:57.629
2 LV P. Jonass (41) KTM 34:29.243 +00:03.900 +00:03.900 01:54.275 17: 01:58.615
3 US T. Covington (64) HUS 34:48.739 +00:23.396 +00:19.496 01:55.508 17: 01:57.706
4 FR B. Paturel (6) YAM 34:52.445 +00:27.102 +00:03.706 01:55.084 17: 01:57.094
5 DK T. K. Olsen (116) HUS 35:04.756 +00:39.413 +00:12.311 01:56.071 17: 02:03.014
6 NL B. Bogers (189) KTM 35:13.636 +00:48.293 +00:08.880 01:56.384 17: 02:02.708
7 BE B. V. doninck (172) YAM 35:18.298 +00:52.955 +00:04.662 01:56.303 17: 02:00.844
9 IT M. Cervellin (747) HON 35:29.460 +01:04.117 +00:06.719 01:57.531 17: 02:00.324
10 FR D. Herbreteau (338) KAW 35:31.295 +01:05.952 +00:01.835 01:57.602 17: 01:59.780
11 ES I. L. Olano (66) HUS 35:34.953 +01:09.610 +00:03.658 01:56.851 17: 02:02.235
12 SE A. Östlund (161) YAM 35:38.467 +01:13.124 +00:03.514 01:57.586 17: 02:03.197
13 DE H. Jacobi (29) HUS 36:07.304 +01:41.961 +00:28.837 01:57.938 17: 01:59.468
14 NL L. v. Berkel (107) KTM 36:09.194 +01:43.851 +00:01.890 01:59.521 17: 01:59.521
16 BE N. Renkens (83) KTM 36:33.271 +02:07.928 +00:06.896 02:00.711 17: 02:08.590
17 NL M. D. Waal (53) HON 34:28.418 -1 lap -1 lap 01:59.093 16: 02:04.464
18 NL B. Vaessen (98) SUZ 34:40.000 -1 lap -1 lap 01:58.892 16: 02:03.231
19 GB C. Mewse (426) HUS 34:53.911 -1 lap -1 lap 01:57.900 16: 02:09.709
20 ES J. Zaragoza (101) YAM 35:25.972 -1 lap -1 lap 02:01.858 16: 02:10.079
23 BE J. Lieber (33) KTM 26:01.474 -5 laps -5 laps 01:56.290 12: 02:41.961
24 GB B. Watson (919) KTM 19:38.234 -8 laps -8 laps 01:57.549 9: 02:03.615

Pódio
1. Jeremy Seewer, 47 pts
2. Pauls Jonass, 47
3. Thomas Covington, 40






Vídeos MotoX Connect



Acompanhe o MotoX no Facebook

Curso MotoX Ric Raspa
Brasil Racing
JPS Racing

© 2000 - 2017 MotoX MX1 Internet